Location: ????
(55.9619°N, 38.0728°E)
Time: 06:18:02
(UTC+00:00)

Daily predictions for brighter satellites

Satellite Brightness Start Highest point End
(mag) Time Altitude Azimuth Time Altitude Azimuth Time Altitude Azimuth
Cosmos 44 3.7 13:33:12 10° NW 13:38:23 81° SW 13:43:44 10° SE
Cosmos 304 Rocket 4.2 13:34:39 10° SW 13:39:22 62° WNW 13:44:07 10° NNE
Cosmos 1862 4.2 13:36:32 10° NNW 13:40:06 49° W 13:43:38 10° S
Cosmos 1656 Rocket 3.8 13:35:52 10° SW 13:41:32 85° NW 13:47:16 10° NE
Cosmos 2151 4.5 13:41:45 10° NNE 13:44:17 15° ENE 13:46:47 10° E
Cosmos 1570 Rocket 4.4 13:39:23 10° NNW 13:44:29 42° NE 13:49:33 10° ESE
Cosmos 1943 Rocket 3.3 13:40:17 10° WSW 13:45:23 35° NW 13:50:28 10° NNE
USA 290 4.0 13:43:40 10° N 13:45:39 15° NE 13:47:39 10° ENE
DMSP B5D2-2 4.1 13:42:17 10° NNE 13:47:31 88° WNW 13:52:43 10° SSW
IRS-1D 4.5 13:43:09 10° S 13:48:00 51° W 13:52:49 10° NNW
Cosmos 1455 Rocket 3.7 13:44:35 10° SSE 13:48:32 35° E 13:52:31 10° NNE
Cosmos 1814 Rocket 4.4 13:44:04 10° NNW 13:49:25 75° WSW 13:54:44 10° SSE
NOSS 3-3 (A) 4.4 13:44:41 10° NW 13:51:22 64° NNE 13:59:29 10° ESE
Cosmos 1607 4.2 13:45:53 10° NW 13:51:56 52° NNE 13:58:02 10° ESE
Meteor 1-28 Rocket 4.0 13:51:10 10° NE 13:54:03 25° E 13:56:54 10° SSE
CZ-2D R/B 4.0 13:52:40 10° ESE 13:55:09 22° ENE 13:57:39 10° N
Cosmos 1346 Rocket 3.6 13:51:49 10° NNW 13:55:26 52° W 13:59:01 10° S
Cosmos 1850 Rocket 4.0 13:50:51 10° SSW 13:55:58 69° ESE 14:01:08 10° NNE
Lacrosse 5 rocket 3.3 13:54:47 10° SSE 13:56:47 14° SE 13:58:45 10° E
Cosmos 1782 4.5 13:56:24 10° ESE 13:57:55 12° E 13:59:07 11° ENE
Cosmos 2263 4.4 13:53:48 10° SSW 13:59:28 62° ESE 14:05:11 10° NE
Cosmos 1743 3.9 13:57:22 10° NNE 13:59:32 16° ENE 14:01:41 10° ESE
GEOS 3 Rocket 4.3 13:58:09 10° NE 14:03:16 43° SE 14:08:22 10° SSW
Cosmos 2297 3.7 13:58:58 10° SSW 14:04:38 79° ESE 14:10:19 10° NE
SMAP 3.2 14:00:11 10° SE 14:04:41 50° ENE 14:09:12 10° N
Aureole 3 Rocket 4.1 14:00:40 10° SSW 14:04:51 56° WNW 14:10:43 10° N
YAOGAN 1 4.0 14:04:28 10° E 14:07:16 17° NE 14:10:04 10° NNE
CENTAUR R/B 3.1 14:03:29 10° S 14:08:50 41° ESE 14:14:56 12° ENE
Meteor 2-1 Rocket 4.3 14:04:56 10° S 14:10:51 77° E 14:16:44 10° NNE
Landsat 7 4.0 14:07:07 10° SE 14:11:34 46° ENE 14:16:01 10° N
SJ 16-02 2.9 14:08:41 10° WSW 14:12:27 29° NW 14:16:14 10° NNE
Sich 1 Rocket 3.8 14:09:02 10° SSW 14:13:34 79° W 14:18:08 10° N
Cosmos 2297 Rocket 2.4 14:09:12 10° NNW 14:14:43 49° NE 14:20:13 10° ESE
Lacrosse 4 Rocket 2.2 14:11:47 10° S 14:15:25 32° ESE 14:18:11 15° ENE
Cosmos 2208 Rocket 4.1 14:10:42 10° NNW 14:15:45 50° NE 14:20:46 10° SE
IRS-1C 4.2 14:10:54 10° SE 14:16:04 55° ENE 14:21:17 10° NNW
SPOT 1/Viking Rocket 4.2 14:13:09 10° ESE 14:17:43 32° ENE 14:22:18 10° N
USA 215 3.3 14:11:36 10° E 14:18:11 82° N 14:24:46 10° W
Cosmos 1758 Rocket 3.9 14:15:47 10° N 14:19:56 41° ENE 14:24:01 10° SE
Cosmos 773 Rocket 4.1 14:15:07 10° NNW 14:20:13 53° NE 14:25:19 10° SE
ATLAS CENTAUR R/B 0.9 14:17:10 10° NW 14:20:26 50° NNE 14:23:36 10° ESE
Cosmos 1400 Rocket 4.2 14:18:18 10° SW 14:21:43 34° WNW 14:25:07 10° N
MOS 1 Rocket 3.8 14:17:17 10° SE 14:21:50 43° ENE 14:26:39 10° N
ARIANE 5 R/B 2.5 14:17:01 10° SE 14:21:58 59° ENE 14:27:01 10° NNW
IGS 5A 3.4 14:19:10 10° SSE 14:23:08 83° WSW 14:27:08 10° NNW
AQUARIUS 4.4 14:19:07 10° SE 14:23:18 44° ENE 14:27:30 10° N
Cosmos 2219 4.4 14:19:50 10° NNW 14:24:25 24° NNE 14:27:34 16° ENE
Okean 2 Rocket 3.8 14:21:30 10° SSW 14:25:46 53° WNW 14:30:05 10° N
Cosmos 2084 Rocket 3.7 14:21:55 10° NW 14:26:01 48° NNE 14:29:24 14° E
Cosmos 2026 Rocket 4.2 14:20:21 10° NNW 14:26:32 79° W 14:32:48 10° S
UNK 4.1 14:22:22 10° NNE 14:26:45 41° E 14:31:06 10° S
Okean 1 Rocket 3.6 14:22:57 10° SSW 14:27:13 60° WNW 14:31:31 10° N
Cosmos 2098 Rocket 4.0 14:24:16 10° SE 14:27:28 24° E 14:30:30 13° NE
Cosmos 2084 4.1 14:24:20 10° SSW 14:28:11 37° SE 14:30:44 18° ENE
Iridium 51 3.8 14:27:10 10° SSE 14:30:11 50° E 14:33:18 10° NNE
CZ-2D R/B 4.3 14:27:20 10° ESE 14:30:56 28° ENE 14:34:32 10° N
Cosmos 1634 Rocket 4.0 14:24:55 10° S 14:30:59 61° E 14:37:04 10° NNE
NOSS 3-3 (C) 4.4 14:24:07 10° NW 14:31:00 77° NNE 14:39:22 10° ESE
Radarsat 4.5 14:28:12 10° SSE 14:33:22 78° ENE 14:38:35 10° NNW
USA 281 4.4 14:32:29 16° ENE 14:35:48 23° NNE 14:40:43 10° NNW
SL-08 ROCKET BODY 4.3 14:36:23 10° N 14:42:17 69° ENE 14:48:14 10° SSE
Cosmos 2228 2.9 14:40:05 10° S 14:44:15 62° E 14:48:28 10° NNE
Cosmos 1626 Rocket 3.4 14:41:05 10° N 14:45:28 77° ENE 14:49:48 10° SSE
Cosmos 405 Rocket 2.2 14:42:50 10° NNW 14:46:09 89° ENE 14:49:24 10° SSE
BREEZE-M DEB (TANK) 3.7 14:43:48 10° WSW 14:46:28 36° SSE 14:52:00 12° ESE
Cosmos 1092 Rocket 4.4 14:40:25 10° NNW 14:46:33 66° W 14:52:36 10° S
Thor Agena Rocket 4.0 14:41:56 10° S 14:47:08 65° WSW 14:52:18 10° NNW
CZ-4C R/B 2.7 14:43:48 10° NW 14:50:05 75° NNE 14:58:12 10° ESE
Okean 1-7 Rocket 4.0 14:47:16 10° N 14:51:28 39° ENE 14:55:35 10° SE
Cosmos 2279 Rocket 4.0 14:45:30 10° S 14:51:34 60° E 14:57:42 10° NNE
SJ-6F 4.2 14:49:41 10° SSE 14:53:38 68° ENE 14:57:37 10° NNW
Intercosmos 24 4.0 14:49:12 10° NNW 14:53:54 79° W 14:57:34 10° S
Cosmos 1844 Rocket 4.2 14:49:56 10° NNW 14:54:00 20° NNE 14:55:45 17° NE
NOSS 3-2 (A) 3.9 14:52:28 10° S 14:57:07 35° ESE 14:59:40 24° ENE
Cosmos 1356 Rocket 3.3 14:53:26 10° SSW 14:57:29 87° E 15:01:14 12° NNE
Cosmos 292 Rocket 3.9 14:52:55 10° SSW 14:57:44 77° WNW 15:01:41 15° NNE
Cosmos 2263 Rocket 2.8 14:54:48 10° NNW 15:00:01 36° NE 15:02:25 25° E
IRIDIUM 104 4.3 14:56:08 10° N 15:01:20 62° E 15:06:31 10° SSE
Cosmos 1315 Rocket 2.8 14:59:40 10° SSW 15:03:30 78° WNW 15:06:48 14° NNE
Resurs 1-3 3.9 14:59:33 10° SE 15:03:36 42° ENE 15:07:41 10° N
BlueWalker 3 3.3 15:00:38 10° W 15:03:57 33° SSW 15:06:43 13° SE
Cosmos 2227 Rocket 2.3 14:59:54 10° NNW 15:05:26 51° NE 15:09:24 19° ESE
IRS-P3 4.1 15:01:09 10° SSE 15:06:29 90° WSW 15:11:52 10° NNW
Cosmos 1544 Rocket 3.5 15:02:29 10° S 15:06:49 62° E 15:10:12 17° NNE
SL-16 R/B 2.9 15:03:11 10° NNE 15:09:23 66° WNW 15:15:32 10° SW
SKYMED 2 4.2 15:09:23 34° E 15:09:46 34° E 15:13:45 10° SSE
IRIDIUM 114 4.2 15:05:15 10° N 15:10:30 72° E 15:15:43 10° SSE
IRAS Rocket 4.2 15:05:19 10° SE 15:10:39 55° ENE 15:16:01 10° NNW
SJ-12 4.2 15:08:46 10° S 15:12:30 60° WSW 15:16:16 10° NNW
SAR-Lupe-4 4.5 15:10:12 10° S 15:13:40 50° WSW 15:17:09 10° NNW
Cosmos 2369 Rocket 3.1 15:08:36 10° WSW 15:14:01 45° NW 15:18:24 16° NNE
Spot 4 Rocket 3.9 15:13:03 10° SSE 15:18:06 65° ENE 15:23:11 10° NNW
Cosmos 1867 3.5 15:13:51 10° NW 15:19:21 77° NE 15:22:45 24° ESE
IRIDIUM 103 4.2 15:14:25 10° N 15:19:42 83° E 15:24:56 10° S
USA 290 2.1 15:17:12 10° NNW 15:20:29 86° WSW 15:21:49 33° SSE
Cosmos 2278 Rocket 4.0 15:16:42 10° WNW 15:20:49 20° NNW 15:23:47 14° NNE
Meteor 1-20 Rocket 4.0 15:15:19 10° NNW 15:20:52 84° ENE 15:26:20 10° SSE
Resurs 01 Rocket 3.0 15:23:11 23° NNE 15:23:11 23° NNE 15:25:19 10° N
Cosmos 2151 2.8 15:17:33 10° NNW 15:21:44 90° SSW 15:25:54 10° S
Cosmos 2142 Rocket 4.5 15:15:44 10° S 15:22:06 74° E 15:28:29 10° NNE
Cosmos 1602 Rocket 3.5 15:18:15 10° NNW 15:22:42 86° W 15:27:06 10° S
Cosmos 2266 Rocket 3.9 15:17:01 10° N 15:23:18 84° E 15:29:25 10° SSE
CZ-2D R/B 4.4 15:24:02 10° SSW 15:26:57 35° W 15:29:54 10° NNW
NOSS 2-2 (C) 3.2 15:25:41 10° SW 15:28:13 46° S 15:28:13 46° S
Cosmos 1943 Rocket 4.0 15:26:56 10° NW 15:30:45 18° NNW 15:33:07 14° NNE
Cosmos 1697 Rocket 4.0 15:26:29 10° SSE 15:29:16 22° SE 15:29:16 22° SE
Cosmos 1782 2.5 15:28:35 10° SSW 15:32:11 80° WNW 15:33:16 43° N
Lacrosse 5 rocket 1.4 15:29:32 10° SW 15:33:05 49° SSE 15:33:05 49° SSE
Cosmos 1743 3.1 15:30:13 10° NNW 15:33:24 50° W 15:36:34 10° S
Cosmos 1777 Rocket 4.3 15:29:36 10° S 15:34:33 44° ESE 15:34:54 43° E
IRIDIUM 106 4.5 15:32:46 10° N 15:38:00 74° W 15:43:13 10° S
Cosmos 1607 4.3 15:33:17 10° NW 15:39:26 65° SW 15:45:38 10° SSE
USA 81 4.2 15:34:44 10° N 15:39:37 46° ENE 15:39:37 46° ENE
COSMO-SKYMED 1 4.0 15:42:45 22° SSE 15:42:45 22° SSE 15:44:26 10° S
GEOS 3 Rocket 3.9 15:39:06 34° NE 15:41:28 67° NNW 15:46:48 10° WSW
YAOGAN 1 2.4 15:38:17 10° SSE 15:42:33 90° E 15:46:52 10° NNW
Cosmos 1953 Rocket 4.5 15:39:28 10° N 15:42:08 33° NNE 15:42:08 33° NNE
Meteor 1-25 Rocket 4.3 15:39:33 10° NNW 15:45:26 84° WSW 15:51:14 10° S
Cosmos 1486 Rocket 3.9 15:41:05 10° SSW 15:46:13 64° ESE 15:47:12 53° ENE
SL-19 R/B 4.1 15:41:44 10° SSE 15:47:05 90° SW 15:52:44 10° NNW
PSLV R/B 3.3 15:45:17 24° SSE 15:47:38 89° W 15:51:42 10° NNW
OceanSat 1 rocket 4.5 15:43:52 10° SSE 15:48:38 85° ENE 15:53:24 10° NNW
Cosmos 2082 4.1 15:43:16 10° NNW 15:48:41 42° NE 15:48:44 42° NE
Lacrosse 4 Rocket 1.9 15:49:11 10° WSW 15:53:08 49° NW 15:53:40 46° NNW
ATLAS CENTAUR R/B 2.7 15:52:19 10° WNW 15:55:08 26° SW 15:56:00 23° SSW
SPOT 1/Viking Rocket 4.1 15:51:43 10° S 15:56:50 57° W 16:02:00 10° NNW
Cosmos 1825 Rocket 3.6 15:53:16 10° NNW 15:57:40 76° W 16:02:00 10° S
BREEZE-M DEB (TANK) 4.1 15:54:18 10° W 15:57:50 66° S 16:00:56 37° ESE
Cosmos 2297 Rocket 3.2 15:53:24 10° NW 15:58:48 46° WSW 16:04:10 10° S
CENTAUR R/B 2.7 15:52:55 10° WSW 15:59:02 74° NNW 16:02:03 38° NE
Cosmos 1244 Rocket 4.5 15:53:28 10° N 15:59:43 56° ENE 16:00:34 52° ESE
NOAA 6 3.9 15:54:54 10° SSE 16:00:02 89° WSW 16:05:11 10° NNW
USA 215 3.3 15:58:37 39° ESE 16:01:19 78° SSW 16:07:55 10° WNW
Cosmos 1655 Rocket 3.9 15:57:10 10° NNW 16:03:29 89° ENE 16:09:43 10° S
Cosmos 2098 Rocket 3.8 16:00:59 10° SSW 16:04:48 49° WNW 16:07:34 21° N
Cosmos 2084 Rocket 3.9 16:00:46 10° WNW 16:04:53 53° SW 16:05:17 51° SSW
CZ-2D R/B 4.4 16:01:37 10° S 16:05:42 47° W 16:09:46 10° NNW
Cosmos 2084 3.8 16:02:35 10° WSW 16:06:27 58° NW 16:06:27 58° NW
Meteor 1-5 Rocket 4.0 16:02:44 10° NNW 16:08:04 83° WSW 16:13:26 10° S
Cosmos 2219 3.3 16:04:02 10° NNW 16:09:29 59° NE 16:09:29 59° NE
Cosmos 1656 3.7 16:10:41 10° SW 16:16:19 81° NW 16:17:23 60° NNE
Cosmos 1241 Rocket 4.3 16:11:25 10° SW 16:17:48 85° SE 16:18:47 66° NE
Cosmos 44 Rocket 4.4 16:13:35 10° NW 16:17:23 34° N 16:17:23 34° N
USA 281 3.4 16:19:21 50° NE 16:19:21 50° NE 16:25:28 10° NNW
SL-08 R/B 4.5 16:18:58 10° N 16:24:34 63° NE 16:24:34 63° NE
Meteor 2-10 4.3 16:25:33 10° NNW 16:29:55 63° NNW 16:29:55 63° NNW
Cosmos 1538 Rocket 4.3 16:31:46 10° NNW 16:36:16 64° NW 16:36:16 64° NW
CZ-4C R/B 3.7 16:31:59 10° WNW 16:38:27 47° SW 16:44:46 16° SSE
Cosmos 1844 Rocket 3.9 16:34:05 10° NNW 16:37:22 30° N 16:37:22 30° N
Meteor 2-20 4.4 16:35:13 10° S 16:40:49 75° SSW 16:40:49 75° SSW
Cosmos 2360 4.3 16:36:30 10° SW 16:42:03 73° WNW 16:42:03 73° WNW
NOSS 3-2 (C) 4.0 16:38:42 10° SW 16:41:55 40° SSW 16:41:55 40° SSW
Cosmos 2263 Rocket 2.4 16:38:44 10° NW 16:44:07 69° W 16:44:07 69° W
NOSS 3-2 (A) 3.4 16:42:02 10° WSW 16:47:02 71° WNW 16:47:02 71° WNW
Cosmos 2227 Rocket 3.2 16:44:08 10° NW 16:49:27 43° WSW 16:51:16 33° SSW
Resurs 01 Rocket 3.9 17:00:35 19° NNW 17:00:35 19° NNW 17:01:55 10° NNW
Cosmos 2369 Rocket 4.1 16:55:15 10° WNW 16:59:29 21° NNW 17:00:10 21° N
Cosmos 2278 Rocket 4.3 17:03:04 10° NNW 17:05:36 17° N 17:05:36 17° N
Lacrosse 5 rocket 4.3 17:06:25 10° W 17:06:42 12° W 17:06:42 12° W
Cosmos 1697 Rocket 4.3 17:08:43 10° SW 17:11:02 26° SW 17:11:02 26° SW
Cosmos 1943 Rocket 4.3 17:12:42 10° NNW 17:14:36 16° NNW 17:14:36 16° NNW
USA 215 4.3 17:45:58 37° WSW 17:45:58 37° WSW 17:51:02 10° WNW
CENTAUR R/B 3.7 17:44:07 10° W 17:49:10 44° NW 17:49:10 44° NW
USA 281 4.5 18:06:13 35° NW 18:06:13 35° NW 18:10:08 10° NW
ACS3 Solar Sail 4.3 23:39:04 10° NNE 23:39:55 14° NNE 23:39:55 14° NNE
